[[{"header":{"parameterUnit":"m.s-1","parameterCategory":1,"la1":30.2991,"la2":30.254,"lo1":-89.0895,"lo2":-89.0444,"dy":0.0017,"dx":0.0017,"nx":28,"ny":28,"refTime":"2025-12-20T09:00:00:Z","depth":0,"parameterNumber":2,"parameterNumberName":"U-component_of_WINDS"},"data":[0,0,0,0,0,0,0,0,0,0,0,0,0,0,0,0,0,0,0,0,0,0,0,0,0,0,0,0,0,0,0,0,0,0,0,0,0,0,0,0,0,0,0,0,0,0,0,0,0,0,0,0,0,0,0,0,0,0,-4.2873,-4.2874,0,-4.2928,-4.2928,-4.2929,-4.286,-4.2858,-4.2855,-4.2853,-4.2907,-4.2911,-4.2915,0,0,0,0,0,0,0,0,0,0,0,0,0,-4.2707,-4.271,-4.2873,-4.2874,-4.2874,-4.2928,-4.2928,-4.2929,-4.2861,-4.2858,-4.2855,-4.2852,-4.2906,-4.2911,-4.2915,0,0,0,0,0,0,0,0,0,0,0,0,0,-4.2772,-4.2712,-4.2873,-4.2847,-4.2845,-4.2928,-4.2929,-4.2929,-4.2861,-4.2858,-4.2854,-4.285,-4.2905,-4.291,-4.2916,-4.3027,0,0,-4.2933,-4.2936,0,0,0,0,0,0,0,0,-4.2769,-4.2778,-4.285,-4.2849,-4.2847,-4.2883,-4.289,-4.2962,-4.2862,-4.2855,-4.2853,-4.2848,-4.2902,-4.2908,-4.2927,-4.3029,-4.3031,-4.2934,-4.2937,-4.294,-4.2941,0,0,0,0,0,0,0,-4.2764,-4.2776,-4.2894,-4.2851,-4.2849,-4.2831,-4.2837,-4.2903,-4.2899,-4.2855,-4.2851,-4.2858,-4.2901,-4.2921,-4.2927,-4.3032,-4.2934,-4.2939,-4.2942,-4.2944,-4.3226,-4.323,0,0,0,0,0,0,-4.2763,-4.2772,-4.2893,-4.2896,-4.2798,-4.2838,-4.2843,-4.2875,-4.2898,-4.2898,-4.2861,-4.2855,-4.2913,-4.2921,-4.2929,-4.3058,-4.294,-4.2945,-4.2948,-4.3222,-4.3227,-4.3232,0,0,0,0,0,0,-4.276,-4.2774,-4.2891,-4.2833,-4.2846,-4.2844,-4.2881,-4.2878,-4.2899,-4.2903,-4.2901,-4.2883,-4.2911,-4.2921,-4.3002,-4.3059,-4.2948,-4.2953,-4.3218,-4.3224,-4.3229,-4.3318,0,0,0,0,0,0,-4.2755,-4.2774,-4.2816,-4.2834,-4.285,-4.2964,-4.2885,-4.2882,-4.2909,-4.2901,-4.2923,-4.2923,-4.2909,-4.2994,-4.3008,-4.3065,-4.2957,-4.3212,-4.322,-4.3228,-4.331,-4.3326,-4.334,0,0,0,0,0,-4.275,-4.2838,-4.2818,-4.2833,-4.2903,-4.2967,-4.2976,-4.2958,-4.2914,-4.2956,-4.2958,-4.2922,-4.3051,-4.3003,-4.3018,-4.3077,-4.3209,-4.3218,-4.3227,-4.3303,-4.3323,-4.334,0,0,0,0,0,0,-4.2826,-4.284,-4.2818,-4.2916,-4.2941,-4.2955,-4.3007,-4.298,-4.3018,-4.3008,-4.2985,-4.299,-4.3077,-4.3086,-4.3032,-4.3185,-4.3122,-4.3135,-4.3175,-4.3194,-4.3209,-4.3203,-4.2962,0,0,0,0,0,-4.2854,-4.2906,-4.2916,-4.3001,-4.3015,-4.301,-4.3037,-4.3022,-4.3046,-4.3056,-4.3064,-4.3089,-4.3135,-4.3166,-4.3208,-4.3312,-4.3314,-4.336,-4.3375,-4.3388,-4.3398,-4.3451,-4.347,-4.3262,-4.3262,-4.3262,0,0,-4.2913,-4.2927,-4.2961,-4.3017,-4.3034,-4.3087,-4.3019,-4.3078,-4.3116,-4.3065,-4.3141,-4.3149,-4.3175,-4.3267,-4.3309,-4.3277,-4.3457,-4.3399,-4.3409,-4.3412,-4.3462,-4.3482,-4.35,-4.3268,-4.3267,-4.3266,0,0,-4.3045,-4.3063,-4.3135,-4.3154,-4.3182,-4.3178,-4.3196,-4.3215,-4.3217,-4.3295,-4.3256,-4.3302,-4.3383,-4.3402,-4.3423,-4.3565,-4.3531,-4.358,-4.3657,-4.371,-4.3726,-4.374,-4.3788,-4.3806,-4.359,-4.3591,-4.3591,0,-4.3114,-4.3193,-4.3175,-4.3237,-4.3262,-4.3219,-4.3291,-4.331,-4.335,-4.3368,-4.3333,-4.3433,-4.3447,-4.3543,-4.3577,-4.3597,-4.3614,-4.3575,-4.3725,-4.374,-4.3753,-4.3798,-4.3816,-4.3596,-4.3595,-4.3595,-4.3594,0,-4.3275,-4.333,-4.3385,-4.3425,-4.3457,-4.3523,-4.3515,-4.3549,-4.3532,-4.3531,-4.361,-4.3627,-4.3671,-4.3693,-4.3677,-4.3786,-4.3766,-4.3729,-4.3665,-4.3778,-4.382,-4.3838,-4.3604,-4.3602,-4.36,-4.3599,0,0,-4.3454,-4.3484,-4.3504,-4.3521,-4.355,-4.3591,-4.3657,-4.3701,-4.3729,-4.3759,-4.3811,-4.3881,-4.3847,-4.387,-4.3856,-4.3903,-4.4011,-4.386,-4.386,-4.3884,-4.4129,-4.4154,-4.4174,-4.3991,-4.3994,-4.3997,-4.4126,0,-4.3584,-4.3696,-4.3682,-4.3789,-4.3839,-4.38,-4.3856,-4.3879,-4.3881,-4.3923,-4.3926,-4.3974,-4.3927,-4.3941,-4.3985,-4.3988,-4.4059,-4.3979,-4.4037,-4.4039,-4.4027,-4.4197,-4.4223,-4.4344,-4.4143,-4.4145,-4.4148,0,-4.375,-4.3786,-4.3898,-4.3918,-4.3938,-4.3989,-4.4028,-4.407,-4.4095,-4.4093,-4.412,-4.4098,-4.4162,-4.41,-4.4187,-4.4133,-4.4156,-4.4161,-4.4166,-4.4167,-4.4097,-4.4199,-4.4382,-4.4399,-4.4174,-4.4172,-4.417,0,-4.3865,-4.3942,-4.4018,-4.4035,-4.4061,-4.4097,-4.4109,-4.4131,-4.4158,-4.4193,-4.421,-4.4252,-4.4274,-4.4306,-4.4296,-4.4252,-4.4384,-4.4322,-4.4382,-4.4382,-4.4408,-4.4405,-4.4593,-4.443,-4.443,-4.4429,-4.4429,0,-4.401,-4.4078,-4.407,-4.4116,-4.4192,-4.4177,-4.4252,-4.426,-4.428,-4.4326,-4.4297,-4.4341,-4.4326,-4.4369,-4.4362,-4.4433,-4.4445,-4.4443,-4.444,-4.4444,-4.4443,-4.4455,-4.4445,-4.4434,-4.4433,-4.4432,-4.4431,0,-4.4149,-4.4146,-4.4226,-4.4245,-4.4251,-4.4306,-4.4322,-4.4365,-4.4366,-4.4425,-4.4438,-4.4439,-4.4488,-4.4482,-4.4538,-4.4532,-4.462,-4.4609,-4.4611,-4.4607,-4.4666,-4.4659,-4.4865,-4.489,-4.4714,-4.4716,-4.4717,0,-4.4239,-4.4291,-4.4316,-4.4345,-4.436,-4.4408,-4.4436,-4.4424,-4.4454,-4.4487,-4.4526,-4.4573,-4.4609,-4.469,-4.4695,-4.4737,-4.4723,-4.4793,-4.4729,-4.4731,-4.472,-4.4715,-4.4719,-4.4804,-4.4806,-4.4808,-4.4809,0,-4.4398,-4.4394,-4.4436,-4.4478,-4.4512,-4.4544,-4.4573,-4.4598,-4.4589,-4.4624,-4.4674,-4.4703,-4.476,-4.4806,-4.4846,-4.4858,-4.4831,-4.483,-4.4845,-4.4847,-4.4845,-4.4844,-4.4641,-4.4824,-4.4822,-4.4821,-4.4821,-4.482,-4.4512,-4.4556,-4.458,-4.4628,-4.4649,-4.4676,-4.4717,-4.4724,-4.4766,-4.4811,-4.4802,-4.4858,-4.4882,-4.4933,-4.495,-4.4993,-4.4967,-4.4991,-4.4996,-4.5,-4.5006,-4.4843,-4.5001,-4.5,-4.5,-4.5,-4.4999,0,-4.4667,-4.4681,-4.4725,-4.4766,-4.4803,-4.4778,-4.4809,-4.4841,-4.4891,-4.4916,-4.4953,-4.5011,-4.5056,-4.5065,-4.5108,-4.5141,-4.513,-4.5152,-4.5147,-4.515,-4.5028,-4.5008,-4.516,-4.516,-4.516,-4.516,-4.516,-4.516,-4.4751,-4.4823,-4.4823,-4.4905,-4.4918,-4.4973,-4.4993,-4.5018,-4.5038,-4.5104,-4.5141,-4.5148,-4.5166,-4.521,-4.525,-4.5252,-4.5267,-4.5294,-4.529,-4.5175,-4.5159,-4.5143,-4.5125,-4.5298,-4.5299,-4.5408,-4.5409,-4.541]},{"header":{"parameterUnit":"m.s-1","parameterCategory":1,"la1":30.2991,"la2":30.254,"lo1":-89.0895,"lo2":-89.0444,"dy":0.0017,"dx":0.0017,"nx":28,"ny":28,"refTime":"2025-12-20T09:00:00:Z","depth":0,"parameterNumber":3,"parameterNumberName":"V-component_of_WINDS"},"data":[0,0,0,0,0,0,0,0,0,0,0,0,0,0,0,0,0,0,0,0,0,0,0,0,0,0,0,0,0,0,0,0,0,0,0,0,0,0,0,0,0,0,0,0,0,0,0,0,0,0,0,0,0,0,0,0,0,0,1.3667,1.3668,0,1.3774,1.3775,1.3776,1.378,1.3778,1.3777,1.3776,1.3886,1.389,1.3894,0,0,0,0,0,0,0,0,0,0,0,0,0,1.3469,1.3473,1.3667,1.3668,1.367,1.3774,1.3775,1.3777,1.378,1.3778,1.3777,1.3775,1.3885,1.3889,1.3894,0,0,0,0,0,0,0,0,0,0,0,0,0,1.3563,1.3474,1.3667,1.3684,1.3686,1.3773,1.3775,1.3777,1.378,1.3778,1.3776,1.3775,1.3883,1.3889,1.3895,1.3972,0,0,1.3914,1.3917,0,0,0,0,0,0,0,0,1.3558,1.3571,1.368,1.3683,1.3686,1.3761,1.3746,1.3843,1.3781,1.3745,1.3776,1.3774,1.3846,1.3855,1.388,1.3978,1.3982,1.3915,1.3918,1.3921,1.3923,0,0,0,0,0,0,0,1.3552,1.3566,1.3709,1.3682,1.3685,1.3687,1.3699,1.3764,1.3805,1.3748,1.3748,1.3761,1.3847,1.3874,1.3882,1.3984,1.3914,1.392,1.3924,1.3926,1.4157,1.4159,0,0,0,0,0,0,1.3541,1.3561,1.3706,1.3713,1.3616,1.3692,1.3705,1.3739,1.3804,1.3812,1.3762,1.376,1.3864,1.3875,1.3886,1.3986,1.3921,1.3927,1.393,1.4154,1.4157,1.416,0,0,0,0,0,0,1.3537,1.3554,1.3702,1.3637,1.3656,1.3698,1.3736,1.3742,1.3769,1.3815,1.3823,1.3781,1.3863,1.3877,1.3952,1.3989,1.393,1.3935,1.4152,1.4155,1.4159,1.4182,0,0,0,0,0,0,1.3531,1.3553,1.3581,1.3637,1.3659,1.3765,1.3738,1.3746,1.3779,1.3778,1.3835,1.3843,1.3862,1.3943,1.3958,1.3997,1.394,1.4148,1.4153,1.4157,1.4178,1.4186,1.4193,0,0,0,0,0,1.3524,1.3583,1.3583,1.36,1.3696,1.3767,1.378,1.3801,1.3782,1.3813,1.3843,1.3841,1.3982,1.3951,1.3968,1.4009,1.4146,1.4152,1.4157,1.4175,1.4184,1.4192,0,0,0,0,0,0,1.3529,1.359,1.3591,1.3669,1.3713,1.3767,1.3806,1.3809,1.3859,1.3856,1.388,1.3893,1.3969,1.3995,1.3959,1.409,1.4062,1.4071,1.407,1.4079,1.4086,1.408,1.3945,0,0,0,0,0,1.3539,1.3591,1.3642,1.3706,1.3728,1.3764,1.3795,1.3808,1.3854,1.3873,1.3909,1.3954,1.401,1.4045,1.4098,1.4181,1.4197,1.4218,1.4225,1.4231,1.424,1.4291,1.4303,1.4178,1.4178,1.4177,0,0,1.3561,1.3601,1.3632,1.3708,1.3744,1.3799,1.3779,1.3837,1.3879,1.3882,1.3956,1.3984,1.4037,1.4118,1.4155,1.4143,1.4278,1.4238,1.4242,1.4248,1.4298,1.431,1.432,1.4181,1.4181,1.418,0,0,1.363,1.3663,1.3723,1.3759,1.3814,1.3838,1.3852,1.3907,1.3926,1.4001,1.4006,1.4056,1.4149,1.4188,1.422,1.4308,1.431,1.4324,1.4363,1.4413,1.4423,1.4432,1.4468,1.448,1.4332,1.4332,1.4332,0,1.365,1.3733,1.3753,1.3813,1.3848,1.3854,1.3916,1.395,1.4019,1.4044,1.4029,1.4149,1.4185,1.4278,1.4299,1.4323,1.4344,1.4319,1.4419,1.4428,1.4437,1.4472,1.4485,1.4333,1.4333,1.4333,1.4333,0,1.3757,1.3815,1.3857,1.3925,1.3964,1.4025,1.4056,1.4094,1.4104,1.413,1.4209,1.4252,1.4316,1.4338,1.4347,1.4434,1.4425,1.4414,1.4387,1.4451,1.4484,1.4497,1.4336,1.4335,1.4335,1.4334,0,0,1.3832,1.3913,1.3929,1.3962,1.4024,1.4069,1.4131,1.4195,1.4229,1.4276,1.4332,1.4412,1.4404,1.444,1.4454,1.4497,1.457,1.4482,1.4484,1.4501,1.4674,1.4685,1.47,1.4571,1.4573,1.4575,1.4672,0,1.3911,1.4022,1.4044,1.4141,1.4197,1.4205,1.4259,1.4305,1.4331,1.4384,1.4412,1.4471,1.4453,1.4476,1.4519,1.4552,1.4606,1.4545,1.4626,1.4629,1.4617,1.4717,1.4728,1.4817,1.4684,1.4686,1.4688,0,1.4018,1.4071,1.4174,1.4233,1.4257,1.4306,1.4369,1.4417,1.447,1.4486,1.4529,1.4539,1.4607,1.4575,1.4671,1.4629,1.4663,1.4685,1.4689,1.4701,1.4665,1.4735,1.4845,1.486,1.4708,1.4706,1.4705,0,1.4069,1.4165,1.4241,1.4268,1.4337,1.4372,1.4403,1.4453,1.4491,1.4546,1.4572,1.4632,1.4667,1.4715,1.4743,1.4716,1.4839,1.4807,1.4857,1.4857,1.4886,1.4884,1.5007,1.49,1.49,1.49,1.4899,0,1.4157,1.4221,1.4265,1.4312,1.4385,1.441,1.4482,1.4512,1.4558,1.4613,1.4621,1.4673,1.4704,1.4761,1.4782,1.4862,1.4875,1.4893,1.4899,1.4895,1.4894,1.4921,1.4917,1.4903,1.4902,1.4902,1.4901,0,1.4227,1.4258,1.4342,1.4402,1.4418,1.447,1.4522,1.4569,1.4596,1.4666,1.4683,1.4726,1.4794,1.4825,1.4908,1.4923,1.5015,1.5014,1.4998,1.5001,1.5051,1.5048,1.5199,1.5222,1.5095,1.5097,1.5097,0,1.4283,1.4333,1.4399,1.4437,1.4469,1.4528,1.4569,1.4595,1.4637,1.4703,1.4743,1.4811,1.4868,1.4975,1.5015,1.508,1.5084,1.5132,1.5093,1.509,1.5091,1.5089,1.5097,1.514,1.5141,1.5142,1.5143,0,1.4382,1.4396,1.4453,1.4517,1.4565,1.4616,1.4666,1.4697,1.4732,1.4779,1.4849,1.4893,1.4979,1.5048,1.5116,1.5149,1.5155,1.5155,1.5171,1.517,1.5161,1.5172,1.5022,1.5152,1.5151,1.5151,1.515,1.515,1.445,1.4497,1.4552,1.4617,1.4658,1.4706,1.4755,1.4789,1.4848,1.4921,1.4933,1.5009,1.5064,1.5156,1.5192,1.5253,1.5242,1.5263,1.527,1.5276,1.5282,1.5147,1.5265,1.5264,1.5264,1.5264,1.5264,0,1.4554,1.459,1.4649,1.4721,1.4773,1.4772,1.4829,1.4873,1.494,1.499,1.5046,1.5129,1.5197,1.5243,1.5312,1.5353,1.5357,1.5371,1.537,1.5379,1.5285,1.5267,1.5366,1.5366,1.5366,1.5366,1.5366,1.5366,1.4615,1.4696,1.4717,1.482,1.4856,1.493,1.4964,1.5009,1.5051,1.5143,1.52,1.5229,1.528,1.5353,1.5417,1.5429,1.5456,1.5471,1.5483,1.5395,1.5385,1.5375,1.5358,1.5475,1.5476,1.5573,1.5574,1.5575]}]]